GOES 8 [-]

Last updated on July 6, 2021, 3:23 p.m. UTC

1 23051U 94022A   21186.55716672 -.00000039  00000-0  00000-0 0  9998
2 23051  12.8785  26.6930 0007623  20.6460 346.8628  0.98903321106252
UTC
Height (km)
Latitude
Longitude
Inclination
Orbital Period
UTC large
Height (km)
Speed (km/s)
/
Latitude / Longitude
Inclination (degrees)
Orbital Period (minutes)
Azimuth
Elevation
Range (km)
Doppler Factor
iOS Compass Heading
iOS Angle